Home   Weather   The Hague   Past weeks

Flag for Netherlands Past Weather in The Hague, Netherlands — Yesterday and Last 2 Weeks

Now
37 °F

Fog.


Feels Like: 33 °F
Forecast: 32 / 41 °F
Wind: 6 mph from South

Location: Amsterdam Schiphol Airport

Current Time: Jan 23, 2017 at 6:40:42 pm

Latest Report: Jan 23, 2017 at 5:55 pm


Visibility: 1 mi

Pressure: 30.30 "Hg

Humidity: 93%

Dew Point: 36 °F

Location of The HagueLocation

Past Weather in The Hague — Graph

°F

The Hague Temperature Yesterday

Maximum temperature yesterday: 39 °F (at 2:25 pm)
Minimum temperature yesterday: 21 °F (at 6:55 am)
Average temperature yesterday: 29 °F

High & Low Weather Summary for the Past Weeks

 TemperatureHumidityPressure
High50 °F (Jan 11, 11:55 am)100% (Jan 9, 2:55 am)30.74 "Hg (Jan 9, 2:55 am)
Low21 °F (Jan 17, 11:25 pm)39% (Jan 19, 2:25 pm)29.09 "Hg (Jan 12, 11:25 pm)
Average35 °F88%30.18 "Hg
* Reported Jan 8 5:25 pm — Jan 23 5:25 pm, The Hague, Weather by CustomWeather, © 2017

Note: Actual official high and low records may vary slightly from our data, if they occured in-between our weather recording intervals... More about our weather records

Advertising

The Hague Weather History for the Previous 24 Hours

Scroll right to see more
 ConditionsComfort  
Time TempWeatherWind HumidityBarometerVisibility
5:25 pm
Mon, Jan 23
37 °FFog.7 mph93%30.30 "Hg1 mi
4:55 pm36 °FFog.5 mph100%30.30 "Hg1 mi
4:25 pm37 °FFog.6 mph93%30.30 "Hg1 mi
3:55 pm37 °FFog.8 mph93%30.30 "Hg1 mi
3:25 pm37 °FDrizzle. Fog.7 mph93%30.30 "Hg2 mi
2:55 pm37 °FDrizzle. Fog.7 mph93%30.30 "Hg2 mi
2:25 pm37 °FFog.8 mph93%30.30 "Hg2 mi
1:55 pm37 °FFog.9 mph93%30.30 "Hg2 mi
1:25 pm37 °FFog.7 mph93%30.33 "Hg2 mi
12:55 pm37 °FFog.8 mph93%30.33 "Hg2 mi
12:25 pm37 °FFog.7 mph93%30.33 "Hg2 mi
11:55 am37 °FFog.7 mph93%30.33 "Hg2 mi
11:25 am36 °FFog.5 mph93%30.33 "Hg2 mi
10:55 am32 °FIce fog.5 mph100%30.33 "Hg1 mi
10:25 am32 °FChilly.2 mph93%30.33 "Hg1 mi
9:55 am30 °FChilly.3 mph100%30.33 "Hg1 mi
9:25 am28 °FIce fog.3 mph100%30.33 "Hg0 mi
8:55 am27 °FIce fog.3 mph100%30.33 "Hg0 mi
8:25 am27 °FChilly.3 mph100%30.33 "Hg0 mi
7:55 am25 °FCold.3 mph100%30.33 "Hg0 mi
7:25 am25 °FCold.3 mph100%30.33 "Hg1 mi
6:55 am27 °FIce fog.5 mph100%30.33 "Hg1 mi
6:25 am25 °FIce fog.2 mph100%30.33 "Hg0 mi
5:55 am23 °FIce fog.2 mph100%30.33 "Hg0 mi
5:25 am23 °FCold.1 mph100%30.30 "Hg1 mi
4:55 am25 °FCold.1 mph100%30.30 "Hg1 mi
4:25 am27 °FChilly.1 mph93%30.33 "Hg1 mi
3:55 am27 °FIce fog.1 mph93%30.33 "Hg1 mi
3:25 am25 °FIce fog.1 mph100%30.33 "Hg1 mi
2:55 am21 °FIce fog.1 mph100%30.33 "Hg0 mi
2:25 am23 °FIce fog.1 mph100%30.33 "Hg0 mi
1:55 am23 °FIce fog.3 mph100%30.33 "Hg0 mi
1:25 am25 °FIce fog.1 mph93%30.33 "Hg0 mi
12:55 am25 °FCold.2 mph100%30.33 "Hg1 mi
12:25 am25 °FCold.5 mph100%30.33 "Hg2 mi
11:55 pm
Sun, Jan 22
27 °FChilly.2 mph100%30.33 "Hg2 mi
11:25 pm32 °FChilly.1 mph93%30.33 "Hg2 mi
10:55 pm32 °FChilly.2 mph93%30.33 "Hg2 mi
10:25 pm32 °FChilly.3 mph100%30.33 "Hg3 mi
9:55 pm32 °FIce fog.3 mph93%30.33 "Hg3 mi
9:25 pm30 °FIce fog.1 mph100%30.33 "Hg3 mi
8:55 pm32 °FIce fog.No wind93%30.33 "Hg3 mi
8:25 pm32 °FIce fog.2 mph93%30.30 "Hg3 mi
7:55 pm32 °FIce fog.3 mph93%30.33 "Hg3 mi
7:25 pm34 °FFog.3 mph93%30.33 "Hg3 mi
6:55 pm32 °FIce fog.1 mph100%30.33 "Hg3 mi
6:25 pm32 °FPassing clouds.1 mph93%30.30 "Hg4 mi
Weather by CustomWeather, © 2017

See weather overviewHow to use our weather pages